星链-5751 (STARLINK-5751 )

导读

STARLINK-5751是美国SpaceX公司星链(Starlink)星座的一员,于2023年2月12日发射升空,属于低轨互联网通信卫星。它运行在约550公里高度的近地轨道,配备星链 mini激光通信终端,可实现最高25Gbps星间链路传输,为全球提供高速低延迟宽带网络服务,是星链大规模星座组网过程中补充的卫星节点,支撑星座持续扩展覆盖能力与通信容量。

基本信息
目录编号:
55576
目录名称:
STARLINK-5751
国际标识:
2023-020H
轨道中心:
EARTH
卫星名称:
星链-5751
卫星全名:
星链-5751 (STARLINK-5751 )
卫星状态:
在轨 (已飞行1300 天)
发射日期:
2023-02-12 UTC
国别 :
美国 (US)
星等 :
--
轨道信息
数据来源 国际轨道数据
星历时间: 2026-09-04T05:19:54+0800
9小时前
查看轨道信息
半长轴: 6861.197km
偏心率: 0.0001193
轨道倾角: 43.002°
近地点辐角 242.218°
升交点赤经 53.036°
平近点角 117.855°
近地点: 482.241km
远地点: 483.879km
周期: 94.267分钟
每日圈数: 15.275766
详细信息
固有亮度:
5
最大亮度:
2.5
卫星平台:
Starlink v1.5
覆盖范围:
全球
运营商:
太空探索技术公司
运营商所在国:
美国
制造商(研发单位):
太空探索技术公司
制造商所在国:
美国
使用方式:
暂无
卫星简介
星链(Starlink)计划是由太空探索技术公司(SpaceX)提出的一个巨型低轨卫星互联网星座项目,计划在2019年至2024年间在太空搭建由约1.2万颗卫星组成的“星链”网络,其中1584颗将部署在地球上空550千米处的近地轨道,并从2020年开始工作。该卫星仍在工作。
2D轨道图
3D轨道图
轨道高度分析图
轨道倾角分析图
轨道综合分析图
查看轨道综合分析图
交会数据列表
事件ID 空间交会对象 最接近时刻(TCA) 交会距离 交会风险概率(CRP) 交会风险指数(CRI) 操作
CDM_260904-163905-557606-705122
2026-09-04T
16:39:08+0000
0.088 km
近距离
1.072555E-3 极高风险 0.96
CDM_260904-205905-557606-407922
2026-09-04T
20:59:27+0000
0.702 km
远距离
6.39044E-5 中风险 0.71
CDM_260904-124305-557606-705122
2026-09-04T
12:43:45+0000
0.664 km
远距离
4.921993E-5 中风险 0.69
CDM_260905-115305-557606-407921
2026-09-05T
11:53:54+0000
0.827 km
远距离
3.831221E-5 中风险 0.67
CDM_260905-122005-557606-385421
2026-09-05T
12:20:51+0000
1.034 km
极远距离
1.553608E-5 中风险 0.59
CDM_260829-175205-557606-660322
2026-08-29T
17:52:53+0000
1.079 km
极远距离
1.163165E-5 中风险 0.56
CDM_260904-192505-557606-407921
2026-09-04T
19:25:18+0000
1.659 km
极远距离
3.685491E-6 低风险 0.46
CDM_260904-214002-565505-557624
SL-3 DEB (25655)
2026-09-04T
21:40:53+0000
2.424 km
极远距离
1.82625E-6 低风险 0.4
CDM_260905-101905-557606-407921
2026-09-05T
10:19:45+0000
2.231 km
极远距离
1.706064E-6 低风险 0.4
CDM_260905-104605-557606-385421
2026-09-05T
10:46:41+0000
2.199 km
极远距离
1.553149E-6 低风险 0.39